THY3LU LIRN-LIBD

Flight info

Callsign THY3LU
Flight time 0h 28m
Altitude 18000
Route GALTI M742 BUMOK P748 TOPNO
Aircraft B738/M-SDE2E3FGHIRWXY/LB1

Departure

Time 2026-04-25 11:01
Airport Naples International Airport (LIRN)

Arrival

Time 2026-04-25 11:29
Airport Bari Karol Wojtyła International Airport (LIBD)
Time Latitude Longitude Altitude Speed Heading
2026-04-25 10:42 40.87842 14.28085 310 ft 0 kts 141°
2026-04-25 10:49 40.87842 14.28084 310 ft 1 kts 141°
2026-04-25 10:50 40.87860 14.28064 309 ft 4 kts 134°
2026-04-25 10:50 40.87877 14.28037 310 ft 4 kts 119°
2026-04-25 10:50 40.87885 14.28006 309 ft 4 kts 76°
2026-04-25 10:50 40.87882 14.27994 311 ft 1 kts 51°
2026-04-25 10:53 40.87883 14.27996 311 ft 1 kts 51°
2026-04-25 10:53 40.87896 14.28017 310 ft 4 kts 51°
2026-04-25 10:53 40.87920 14.28055 309 ft 7 kts 51°
2026-04-25 10:53 40.87955 14.28111 307 ft 9 kts 50°
2026-04-25 10:54 40.87964 14.28159 307 ft 0 kts 92°
2026-04-25 10:54 40.87964 14.28160 307 ft 1 kts 81°
2026-04-25 10:54 40.87978 14.28153 306 ft 3 kts 327°
2026-04-25 10:54 40.88006 14.28153 304 ft 8 kts 26°
2026-04-25 10:55 40.88062 14.28241 305 ft 16 kts 73°
2026-04-25 10:55 40.88057 14.28393 297 ft 17 kts 97°
2026-04-25 10:55 40.88042 14.28541 298 ft 16 kts 99°
2026-04-25 10:55 40.88085 14.28674 289 ft 17 kts 53°
2026-04-25 10:56 40.88161 14.28807 283 ft 19 kts 53°
2026-04-25 10:56 40.88244 14.28953 277 ft 21 kts 51°
2026-04-25 10:56 40.88332 14.29099 271 ft 20 kts 52°
2026-04-25 10:56 40.88387 14.29195 268 ft 20 kts 53°
2026-04-25 10:57 40.88468 14.29338 262 ft 19 kts 53°
2026-04-25 10:57 40.88574 14.29523 254 ft 19 kts 52°
2026-04-25 10:57 40.88658 14.29668 249 ft 21 kts 53°
2026-04-25 10:57 40.88750 14.29827 242 ft 22 kts 52°
2026-04-25 10:58 40.88815 14.29940 238 ft 23 kts 53°
2026-04-25 10:58 40.88917 14.30119 231 ft 25 kts 53°
2026-04-25 10:58 40.89019 14.30297 224 ft 24 kts 52°
2026-04-25 10:58 40.89130 14.30449 220 ft 23 kts 20°
2026-04-25 10:59 40.89213 14.30412 219 ft 7 kts 326°
2026-04-25 10:59 40.89225 14.30399 215 ft 1 kts 300°
2026-04-25 10:59 40.89220 14.30389 217 ft 0 kts 239°
2026-04-25 11:00 40.89128 14.30192 223 ft 61 kts 238°
2026-04-25 11:00 40.88777 14.29447 252 ft 128 kts 237°
2026-04-25 11:00 40.88214 14.28257 459 ft 168 kts 235°
2026-04-25 11:01 40.87598 14.26968 1372 ft 163 kts 237°
2026-04-25 11:01 40.86753 14.25936 2088 ft 179 kts 202°
2026-04-25 11:01 40.85429 14.25797 2518 ft 205 kts 164°
2026-04-25 11:01 40.84103 14.26402 3453 ft 201 kts 162°
2026-04-25 11:02 40.82733 14.26894 4222 ft 206 kts 163°
2026-04-25 11:02 40.81334 14.27338 4991 ft 207 kts 166°
2026-04-25 11:02 40.79922 14.27684 5668 ft 210 kts 168°
2026-04-25 11:02 40.78471 14.28024 6339 ft 213 kts 168°
2026-04-25 11:03 40.76999 14.28384 6970 ft 216 kts 168°
2026-04-25 11:03 40.75516 14.28759 7605 ft 217 kts 167°
2026-04-25 11:03 40.74018 14.29159 8209 ft 222 kts 167°
2026-04-25 11:03 40.72495 14.29566 8811 ft 225 kts 167°
2026-04-25 11:04 40.70893 14.29998 9166 ft 248 kts 167°
2026-04-25 11:04 40.69116 14.30484 9419 ft 274 kts 167°
2026-04-25 11:04 40.67175 14.31022 9875 ft 292 kts 167°
2026-04-25 11:04 40.65167 14.31584 10539 ft 301 kts 167°
2026-04-25 11:05 40.63026 14.32187 10725 ft 327 kts 167°
2026-04-25 11:05 40.60767 14.33061 10954 ft 348 kts 154°
2026-04-25 11:05 40.58721 14.34817 11557 ft 355 kts 137°
2026-04-25 11:05 40.57136 14.37300 12340 ft 356 kts 120°
2026-04-25 11:06 40.56285 14.40344 13080 ft 359 kts 96°
2026-04-25 11:06 40.56513 14.43601 13824 ft 361 kts 71°
2026-04-25 11:06 40.57637 14.46511 14504 ft 364 kts 57°
2026-04-25 11:06 40.59043 14.49326 14992 ft 370 kts 60°
2026-04-25 11:07 40.60081 14.52420 15099 ft 370 kts 71°
2026-04-25 11:07 40.60657 14.55716 15127 ft 370 kts 81°
2026-04-25 11:07 40.61011 14.59072 15118 ft 371 kts 82°
2026-04-25 11:07 40.61317 14.62443 15118 ft 370 kts 83°
2026-04-25 11:08 40.61621 14.65812 15125 ft 370 kts 83°
2026-04-25 11:08 40.61936 14.69169 15120 ft 370 kts 82°
2026-04-25 11:08 40.62262 14.72522 15127 ft 369 kts 82°
2026-04-25 11:08 40.62594 14.75865 15127 ft 368 kts 82°
2026-04-25 11:09 40.62929 14.79205 15131 ft 368 kts 82°
2026-04-25 11:09 40.63266 14.82548 15131 ft 368 kts 82°
2026-04-25 11:09 40.63601 14.85892 15133 ft 368 kts 82°
2026-04-25 11:09 40.63948 14.89228 15130 ft 368 kts 80°
2026-04-25 11:10 40.64579 14.92495 15106 ft 367 kts 71°
2026-04-25 11:10 40.65129 14.94599 15104 ft 367 kts 70°
2026-04-25 11:10 40.66268 14.98796 15105 ft 367 kts 70°
2026-04-25 11:10 40.67131 15.01965 15111 ft 368 kts 70°
2026-04-25 11:11 40.67987 15.05137 15109 ft 368 kts 70°
2026-04-25 11:11 40.68837 15.08317 15103 ft 367 kts 70°
2026-04-25 11:11 40.69681 15.11497 15107 ft 367 kts 70°
2026-04-25 11:11 40.70518 15.14674 15109 ft 367 kts 71°
2026-04-25 11:12 40.71354 15.17857 15112 ft 368 kts 70°
2026-04-25 11:12 40.72189 15.21051 15121 ft 368 kts 70°
2026-04-25 11:12 40.73023 15.24242 15100 ft 368 kts 71°
2026-04-25 11:12 40.73844 15.27396 15098 ft 368 kts 71°
2026-04-25 11:13 40.74673 15.30578 15104 ft 367 kts 70°
2026-04-25 11:13 40.75503 15.33770 15084 ft 367 kts 71°
2026-04-25 11:13 40.76331 15.36960 15105 ft 367 kts 70°
2026-04-25 11:13 40.77159 15.40153 15104 ft 368 kts 71°
2026-04-25 11:14 40.77982 15.43329 14849 ft 363 kts 71°
2026-04-25 11:14 40.78789 15.46454 14613 ft 354 kts 70°
2026-04-25 11:14 40.79573 15.49490 14368 ft 346 kts 71°
2026-04-25 11:14 40.80340 15.52460 14121 ft 338 kts 71°
2026-04-25 11:15 40.81090 15.55370 13882 ft 332 kts 71°
2026-04-25 11:15 40.81822 15.58216 13627 ft 330 kts 71°
2026-04-25 11:15 40.82557 15.61078 13353 ft 328 kts 70°
2026-04-25 11:15 40.83284 15.63909 13031 ft 323 kts 71°
2026-04-25 11:16 40.84726 15.69534 12211 ft 322 kts 70°
2026-04-25 11:16 40.85441 15.72324 11830 ft 320 kts 70°
2026-04-25 11:16 40.86150 15.75097 11462 ft 317 kts 70°
2026-04-25 11:17 40.86843 15.77819 11109 ft 316 kts 70°
2026-04-25 11:17 40.87542 15.80563 10746 ft 315 kts 70°
2026-04-25 11:17 40.88244 15.83321 10545 ft 308 kts 70°
2026-04-25 11:17 40.88907 15.85935 10400 ft 301 kts 70°
2026-04-25 11:18 40.89573 15.88554 10261 ft 293 kts 70°
2026-04-25 11:18 40.90215 15.91079 10143 ft 286 kts 70°
2026-04-25 11:18 40.90840 15.93544 9914 ft 282 kts 70°
2026-04-25 11:18 40.91457 15.95971 9606 ft 282 kts 70°
2026-04-25 11:19 40.92077 15.98422 9337 ft 280 kts 70°
2026-04-25 11:19 40.92695 16.00860 9051 ft 280 kts 69°
2026-04-25 11:19 40.93311 16.03302 8759 ft 279 kts 69°
2026-04-25 11:19 40.93923 16.05729 8479 ft 278 kts 70°
2026-04-25 11:20 40.94534 16.08151 8192 ft 276 kts 69°
2026-04-25 11:20 40.95140 16.10558 7924 ft 276 kts 70°
2026-04-25 11:20 40.95783 16.12949 7642 ft 275 kts 67°
2026-04-25 11:20 40.96459 16.15302 7362 ft 273 kts 66°
2026-04-25 11:21 40.97138 16.17643 7090 ft 272 kts 67°
2026-04-25 11:21 40.97814 16.19976 6815 ft 271 kts 67°
2026-04-25 11:21 40.98483 16.22301 6549 ft 270 kts 66°
2026-04-25 11:21 40.99149 16.24620 6290 ft 269 kts 67°
2026-04-25 11:22 40.99815 16.26943 5977 ft 270 kts 67°
2026-04-25 11:22 41.00255 16.28483 5787 ft 270 kts 67°
2026-04-25 11:22 41.01138 16.31583 5440 ft 267 kts 67°
2026-04-25 11:22 41.01781 16.33847 5300 ft 260 kts 67°
2026-04-25 11:23 41.02416 16.36082 5102 ft 257 kts 67°
2026-04-25 11:23 41.03037 16.38270 4968 ft 250 kts 66°
2026-04-25 11:23 41.03634 16.40367 4854 ft 244 kts 67°
2026-04-25 11:23 41.04226 16.42457 4651 ft 243 kts 67°
2026-04-25 11:24 41.04827 16.44577 4407 ft 241 kts 66°
2026-04-25 11:24 41.05418 16.46658 4164 ft 242 kts 67°
2026-04-25 11:24 41.06000 16.48715 3902 ft 241 kts 67°
2026-04-25 11:24 41.06591 16.50792 3676 ft 241 kts 66°
2026-04-25 11:25 41.07197 16.52869 3419 ft 242 kts 66°
2026-04-25 11:25 41.07860 16.54930 3180 ft 243 kts 64°
2026-04-25 11:25 41.08513 16.57003 2873 ft 244 kts 65°
2026-04-25 11:25 41.09145 16.59095 2473 ft 239 kts 65°
2026-04-25 11:26 41.09721 16.61068 2184 ft 222 kts 66°
2026-04-25 11:26 41.10252 16.62915 1898 ft 206 kts 66°
2026-04-25 11:26 41.10530 16.63888 1763 ft 200 kts 68°
2026-04-25 11:27 41.10885 16.65136 1526 ft 191 kts 65°
2026-04-25 11:27 41.11334 16.66713 1321 ft 172 kts 66°
2026-04-25 11:27 41.11728 16.68132 1112 ft 157 kts 68°
2026-04-25 11:27 41.11944 16.69037 972 ft 154 kts 68°
2026-04-25 11:28 41.12354 16.70818 690 ft 152 kts 68°
2026-04-25 11:28 41.12739 16.72116 534 ft 149 kts 63°
2026-04-25 11:28 41.13103 16.73413 334 ft 152 kts 67°
2026-04-25 11:28 41.13468 16.74705 163 ft 145 kts 63°
2026-04-25 11:29 41.13791 16.75848 151 ft 120 kts 69°
2026-04-25 11:29 41.14043 16.76735 149 ft 85 kts 70°
2026-04-25 11:29 41.14179 16.77215 148 ft 32 kts 69°
2026-04-25 11:29 41.14203 16.77404 148 ft 11 kts 132°
2026-04-25 11:30 41.14126 16.77407 154 ft 11 kts 185°
2026-04-25 11:30 41.14053 16.77379 157 ft 11 kts 210°
2026-04-25 11:30 41.14014 16.77296 157 ft 11 kts 247°
2026-04-25 11:30 41.13988 16.77206 157 ft 10 kts 249°
2026-04-25 11:31 41.13964 16.77118 157 ft 10 kts 250°
2026-04-25 11:31 41.13940 16.77031 157 ft 11 kts 250°
2026-04-25 11:31 41.13906 16.76907 157 ft 18 kts 250°
2026-04-25 11:31 41.13858 16.76745 157 ft 18 kts 250°
2026-04-25 11:32 41.13815 16.76593 157 ft 17 kts 245°
2026-04-25 11:32 41.13747 16.76560 157 ft 11 kts 166°
2026-04-25 11:32 41.13697 16.76537 157 ft 5 kts 199°
2026-04-25 11:32 41.13666 16.76521 157 ft 5 kts 210°
2026-04-25 11:33 41.13642 16.76484 157 ft 6 kts 244°
2026-04-25 11:33 41.13623 16.76417 158 ft 9 kts 249°
2026-04-25 11:33 41.13596 16.76324 158 ft 11 kts 242°
2026-04-25 11:33 41.13567 16.76321 158 ft 4 kts 148°
2026-04-25 11:34 41.13544 16.76336 158 ft 4 kts 159°
2026-04-25 11:34 41.13530 16.76343 158 ft 1 kts 159°
2026-04-25 11:34 41.13525 16.76345 158 ft 0 kts 159°